Regional Weather Roundup
Issued by NWS

Home | Current Version | Previous Version | Graphics & Text | Print | Product List | Glossary On
Versions: 1 2 3 4 5 6 7 8 9 10 11 12 13 14 15 16 17 18 19 20 21 22 23 24 25 26 27 28 29 30 31 32 33 34 35 36 37 38 39 40 41 42 43 44 45 46 47 48 49 50
000
ASUS43 KOAX 272202
RWRNE

WEATHER ROUNDUP FOR NEBRASKA
NATIONAL WEATHER SERVICE OMAHA NE
500 PM CDT MON APR 27 2015

NOTES: SATELLITE DATA IS BEING USED TO AUGMENT CLOUD COVER ABOVE
       12000 FEET.
       "FAIR" INDICATES FEW OR NO CLOUDS BELOW 12,000 FEET WITH NO
       SIGNIFICANT WEATHER AND/OR OBSTRUCTIONS TO VISIBILITY.

  * THESE STATIONS DO NOT REPORT WEATHER SUCH AS RAIN...SNOW OR FOG.

NEZ001>004-019>022-054>056-272300-
NEBRASKA PANHANDLE

CITY           SKY/WX    TMP DP  RH WIND       PRES   REMARKS
SCOTTSBLUFF    CLOUDY    56  41  57 NW9       30.25F
ALLIANCE       MOSUNNY   60  33  36 W6        30.22F
CHADRON        CLOUDY    51  43  74 NW13      30.28S
KIMBALL        CLOUDY    51  36  56 N6        30.25S
SIDNEY         CLOUDY    55  36  48 N6        30.25F
$$

NEZ057>060-069>072-079>082-272300-
SOUTHWEST NEBRASKA

CITY           SKY/WX    TMP DP  RH WIND       PRES   REMARKS
NORTH PLATTE   PTSUNNY   65  33  30 NE10G20   30.17F
IMPERIAL       CLOUDY    60  31  33 NE13G21   30.19F
MCCOOK         PTSUNNY   66  33  29 NE13      30.16F
$$

NEZ005>010-023>029-035>040-094-272300-
NORTH CENTRAL NEBRASKA

CITY           SKY/WX    TMP DP  RH WIND       PRES   REMARKS
VALENTINE      MOSUNNY   69  32  25 VRB7      30.19F
AINSWORTH      MOSUNNY   67  31  26 N8G21     30.19S
BROKEN BOW     MOSUNNY   69  31  24 NE10      30.15F
ORD            SUNNY     68  31  25 NE12      30.15S
$$

NEZ041-046>049-061>064-073>077-083>087-272300-
SOUTH CENTRAL NEBRASKA

CITY           SKY/WX    TMP DP  RH WIND       PRES   REMARKS
GRAND ISLAND   MOSUNNY   66  30  26 NE10G18   30.15F
AURORA         MOSUNNY   65  30  26 NE14G20   30.13F
HASTINGS       PTSUNNY   64  34  32 NE15      30.14F
KEARNEY *      PTSUNNY   64  36  34 NE15G22   30.15F
$$

NEZ011>018-030>034-042>045-272300-
NORTHEAST NEBRASKA

CITY           SKY/WX    TMP DP  RH WIND       PRES   REMARKS
NORFOLK        SUNNY     70  23  17 NE7G17    30.14F
BLAIR          SUNNY     68  27  21 N9        30.12F
COLUMBUS *     SUNNY     68  30  24 NE10G17   30.15F
TEKAMAH        SUNNY     71  27  19 NE17G23   30.12F
$$

NEZ050>053-065>068-078-088>093-272300-
SOUTHEAST NEBRASKA

CITY           SKY/WX    TMP DP  RH WIND       PRES   REMARKS
LINCOLN        SUNNY     68  33  27 E9G20     30.13F
OMAHA EPPLEY   PTSUNNY   70  30  22 N12G23    30.11F
FALLS CITY     SUNNY     68  33  27 NE14      30.08F
NEBRASKA CITY  SUNNY     67  20  17 NE14G20   30.11F
PLATTSMOUTH    SUNNY     69  22  17 NE14G20   30.11F
$$

NEZ044-045-051>053-067-272300-
OMAHA AREA

CITY           SKY/WX    TMP DP  RH WIND       PRES   REMARKS
OMAHA EPPLEY   PTSUNNY   70  30  22 N12G23    30.11F
BLAIR          SUNNY     68  27  21 N9        30.12F
OFFUTT AFB     SUNNY     69  32  25 NE13      30.11F
PLATTSMOUTH    SUNNY     69  22  17 NE14G20   30.11F
WAHOO          FAIR      68  26  20 NE9       30.13F
$$


USA.gov is the U.S. government's official web portal to all federal, state and local government web resources and services.